Time,TemperatureF,DewpointF,PressureIn,WindDirection,WindDirectionDegrees,WindSpeedMPH,WindSpeedGustMPH,Humidity,HourlyPrecipIn,Conditions,Clouds,dailyrainin,SoftwareType,DateUTC
2013-10-15 00:16:00,58.6,58.3,30.11,East,90,3.2,-999.0,99,-99.99,,,0.00,Acu-Link.com,2013-10-15 04:16:00,
2013-10-15 00:32:00,58.5,58.2,30.11,NE,45,2.2,-999.0,99,-99.99,,,0.00,Acu-Link.com,2013-10-15 04:32:00,
2013-10-15 00:47:00,58.3,58.0,30.11,East,90,1.7,-999.0,99,-99.99,,,0.00,Acu-Link.com,2013-10-15 04:47:00,
2013-10-15 01:02:00,58.1,57.8,30.11,NNE,22,2.2,-999.0,99,-99.99,,,0.00,Acu-Link.com,2013-10-15 05:02:00,
2013-10-15 01:17:00,57.9,57.6,30.11,East,90,2.2,-999.0,99,-99.99,,,0.00,Acu-Link.com,2013-10-15 05:17:00,
2013-10-15 01:32:00,57.7,57.4,30.11,ESE,112,0.0,-999.0,99,-99.99,,,0.00,Acu-Link.com,2013-10-15 05:32:00,
2013-10-15 01:48:00,57.6,57.3,30.11,East,90,1.1,-999.0,99,-99.99,,,0.00,Acu-Link.com,2013-10-15 05:48:00,
2013-10-15 02:03:00,57.4,57.1,30.10,East,90,0.0,-999.0,99,-99.99,,,0.00,Acu-Link.com,2013-10-15 06:03:00,
2013-10-15 02:18:00,57.2,56.9,30.10,West,270,2.2,-999.0,99,-99.99,,,0.00,Acu-Link.com,2013-10-15 06:18:00,
2013-10-15 02:33:00,56.8,56.5,30.10,East,90,2.2,-999.0,99,-99.99,,,0.00,Acu-Link.com,2013-10-15 06:33:00,
2013-10-15 02:49:00,56.8,56.5,30.09,East,90,1.7,-999.0,99,-99.99,,,0.00,Acu-Link.com,2013-10-15 06:49:00,
2013-10-15 03:04:00,56.7,56.4,30.09,NE,45,1.7,-999.0,99,-99.99,,,0.00,Acu-Link.com,2013-10-15 07:04:00,
2013-10-15 03:20:00,56.7,56.4,30.09,East,90,0.0,-999.0,99,-99.99,,,0.00,Acu-Link.com,2013-10-15 07:20:00,
2013-10-15 03:35:00,55.9,55.6,30.08,East,90,1.7,-999.0,99,-99.99,,,0.00,Acu-Link.com,2013-10-15 07:35:00,
2013-10-15 03:52:00,55.8,55.5,30.08,East,90,2.2,-999.0,99,-99.99,,,0.00,Acu-Link.com,2013-10-15 07:52:00,
2013-10-15 04:08:00,55.8,55.5,30.07,SSW,202,2.7,-999.0,99,-99.99,,,0.00,Acu-Link.com,2013-10-15 08:08:00,
2013-10-15 04:23:00,55.8,55.5,30.06,ESE,112,2.7,-999.0,99,-99.99,,,0.00,Acu-Link.com,2013-10-15 08:23:00,
2013-10-15 04:38:00,55.8,55.5,30.06,ENE,67,1.7,-999.0,99,-99.99,,,0.00,Acu-Link.com,2013-10-15 08:38:00,
2013-10-15 04:53:00,55.9,55.6,30.05,WSW,247,2.2,-999.0,99,-99.99,,,0.00,Acu-Link.com,2013-10-15 08:53:00,
2013-10-15 05:09:00,55.8,55.5,30.05,SSE,157,2.2,-999.0,99,-99.99,,,0.00,Acu-Link.com,2013-10-15 09:09:00,
2013-10-15 05:24:00,55.6,55.3,30.05,East,90,3.2,-999.0,99,-99.99,,,0.00,Acu-Link.com,2013-10-15 09:24:00,
2013-10-15 05:39:00,56.1,55.5,30.06,ESE,112,2.2,-999.0,98,-99.99,,,0.00,Acu-Link.com,2013-10-15 09:39:00,
2013-10-15 05:54:00,55.6,55.0,30.06,West,270,1.1,-999.0,98,-99.99,,,0.00,Acu-Link.com,2013-10-15 09:54:00,
2013-10-15 06:10:00,54.9,54.6,30.06,East,90,1.7,-999.0,99,-99.99,,,0.00,Acu-Link.com,2013-10-15 10:10:00,
2013-10-15 06:25:00,54.7,54.4,30.05,East,90,0.0,-999.0,99,-99.99,,,0.00,Acu-Link.com,2013-10-15 10:25:00,
2013-10-15 06:40:00,54.7,54.4,30.05,ESE,112,1.1,-999.0,99,-99.99,,,0.00,Acu-Link.com,2013-10-15 10:40:00,
2013-10-15 06:55:00,54.5,54.2,30.04,NE,45,0.0,-999.0,99,-99.99,,,0.00,Acu-Link.com,2013-10-15 10:55:00,
2013-10-15 07:11:00,54.5,54.2,30.05,South,180,0.0,-999.0,99,-99.99,,,0.00,Acu-Link.com,2013-10-15 11:11:00,
2013-10-15 07:26:00,54.3,54.0,30.05,SSW,202,0.0,-999.0,99,-99.99,,,0.00,Acu-Link.com,2013-10-15 11:26:00,
2013-10-15 07:41:00,54.7,54.4,30.05,West,270,0.0,-999.0,99,-99.99,,,0.00,Acu-Link.com,2013-10-15 11:41:00,
2013-10-15 07:57:00,55.8,55.5,30.06,SSE,157,0.0,-999.0,99,-99.99,,,0.00,Acu-Link.com,2013-10-15 11:57:00,
2013-10-15 08:12:00,56.5,55.9,30.06,East,90,0.0,-999.0,98,-99.99,,,0.00,Acu-Link.com,2013-10-15 12:12:00,
2013-10-15 08:27:00,57.9,56.5,30.06,SE,135,3.2,-999.0,95,-99.99,,,0.00,Acu-Link.com,2013-10-15 12:27:00,
2013-10-15 08:42:00,58.8,56.5,30.06,ESE,112,3.2,-999.0,92,-99.99,,,0.00,Acu-Link.com,2013-10-15 12:42:00,
2013-10-15 08:57:00,59.5,56.6,30.06,SSE,157,4.2,-999.0,90,-99.99,,,0.00,Acu-Link.com,2013-10-15 12:57:00,
2013-10-15 09:13:00,60.3,57.0,30.06,East,90,4.2,-999.0,89,-99.99,,,0.00,Acu-Link.com,2013-10-15 13:13:00,
2013-10-15 09:28:00,62.4,58.2,30.06,SSW,202,2.7,-999.0,86,-99.99,,,0.00,Acu-Link.com,2013-10-15 13:28:00,
2013-10-15 09:43:00,64.0,58.0,30.06,ESE,112,5.3,-999.0,81,-99.99,,,0.00,Acu-Link.com,2013-10-15 13:43:00,
2013-10-15 09:58:00,65.3,59.0,30.06,West,270,4.7,-999.0,80,-99.99,,,0.00,Acu-Link.com,2013-10-15 13:58:00,
2013-10-15 10:13:00,66.4,59.3,30.05,ESE,112,4.7,-999.0,78,-99.99,,,0.00,Acu-Link.com,2013-10-15 14:13:00,
2013-10-15 10:29:00,66.0,58.9,30.06,ESE,112,3.7,-999.0,78,-99.99,,,0.00,Acu-Link.com,2013-10-15 14:29:00,
2013-10-15 10:44:00,69.4,60.4,30.05,SE,135,6.3,-999.0,73,-99.99,,,0.00,Acu-Link.com,2013-10-15 14:44:00,
2013-10-15 10:59:00,68.2,60.0,30.05,SE,135,2.7,-999.0,75,-99.99,,,0.00,Acu-Link.com,2013-10-15 14:59:00,
2013-10-15 11:15:00,68.5,60.3,30.04,SSE,157,4.2,-999.0,75,-99.99,,,0.00,Acu-Link.com,2013-10-15 15:15:00,
2013-10-15 11:30:00,68.4,59.4,30.05,SW,225,2.2,-999.0,73,-99.99,,,0.00,Acu-Link.com,2013-10-15 15:30:00,
2013-10-15 11:45:00,69.4,60.4,30.04,WSW,247,2.2,-999.0,73,-99.99,,,0.00,Acu-Link.com,2013-10-15 15:45:00,
2013-10-15 12:00:00,69.6,60.6,30.03,SW,225,4.7,-999.0,73,-99.99,,,0.00,Acu-Link.com,2013-10-15 16:00:00,
2013-10-15 12:15:00,70.3,60.4,30.03,West,270,4.2,-999.0,71,-99.99,,,0.00,Acu-Link.com,2013-10-15 16:15:00,
2013-10-15 12:31:00,70.2,59.9,30.03,SSW,202,4.7,-999.0,70,-99.99,,,0.00,Acu-Link.com,2013-10-15 16:31:00,
2013-10-15 12:46:00,70.9,61.0,30.03,SW,225,2.7,-999.0,71,-99.99,,,0.00,Acu-Link.com,2013-10-15 16:46:00,
2013-10-15 13:01:00,70.5,61.0,30.02,SW,225,3.7,-999.0,72,-99.99,,,0.00,Acu-Link.com,2013-10-15 17:01:00,
2013-10-15 13:16:00,70.9,61.4,30.02,South,180,1.7,-999.0,72,-99.99,,,0.00,Acu-Link.com,2013-10-15 17:16:00,
2013-10-15 13:31:00,70.5,60.6,30.00,SSW,202,1.1,-999.0,71,-99.99,,,0.00,Acu-Link.com,2013-10-15 17:31:00,
2013-10-15 13:47:00,70.7,60.4,30.00,SSE,157,2.2,-999.0,70,-99.99,,,0.00,Acu-Link.com,2013-10-15 17:47:00,
2013-10-15 14:02:00,70.7,60.4,29.99,SSE,157,1.1,-999.0,70,-99.99,,,0.00,Acu-Link.com,2013-10-15 18:02:00,
2013-10-15 14:17:00,70.5,59.4,29.98,East,90,3.7,-999.0,68,-99.99,,,0.00,Acu-Link.com,2013-10-15 18:17:00,
2013-10-15 14:33:00,70.9,59.8,29.97,SW,225,1.1,-999.0,68,-99.99,,,0.00,Acu-Link.com,2013-10-15 18:33:00,
2013-10-15 14:48:00,72.1,60.1,29.97,ESE,112,1.7,-999.0,66,-99.99,,,0.00,Acu-Link.com,2013-10-15 18:48:00,
2013-10-15 15:03:00,72.9,60.0,29.96,SSW,202,3.2,-999.0,64,-99.99,,,0.00,Acu-Link.com,2013-10-15 19:03:00,
2013-10-15 15:18:00,72.0,59.1,29.95,ESE,112,2.2,-999.0,64,-99.99,,,0.00,Acu-Link.com,2013-10-15 19:18:00,
2013-10-15 15:33:00,71.8,59.4,29.95,ESE,112,2.2,-999.0,65,-99.99,,,0.00,Acu-Link.com,2013-10-15 19:33:00,
2013-10-15 15:49:00,71.4,59.0,29.95,ESE,112,1.7,-999.0,65,-99.99,,,0.00,Acu-Link.com,2013-10-15 19:49:00,
2013-10-15 16:04:00,71.4,58.6,29.94,East,90,2.2,-999.0,64,-99.99,,,0.00,Acu-Link.com,2013-10-15 20:04:00,
2013-10-15 16:19:00,72.1,58.8,29.94,East,90,1.7,-999.0,63,-99.99,,,0.00,Acu-Link.com,2013-10-15 20:19:00,
2013-10-15 16:34:00,73.0,59.2,29.94,ESE,112,3.7,-999.0,62,-99.99,,,0.00,Acu-Link.com,2013-10-15 20:34:00,
2013-10-15 16:49:00,72.5,59.2,29.94,East,90,4.2,-999.0,63,-99.99,,,0.00,Acu-Link.com,2013-10-15 20:49:00,
2013-10-15 17:05:00,71.8,59.0,29.94,SE,135,2.7,-999.0,64,-99.99,,,0.00,Acu-Link.com,2013-10-15 21:05:00,
2013-10-15 17:20:00,71.2,59.7,29.93,SSE,157,2.2,-999.0,67,-99.99,,,0.00,Acu-Link.com,2013-10-15 21:20:00,
2013-10-15 17:35:00,70.7,58.8,29.93,East,90,2.2,-999.0,66,-99.99,,,0.00,Acu-Link.com,2013-10-15 21:35:00,
2013-10-15 17:50:00,70.0,58.9,29.93,East,90,1.1,-999.0,68,-99.99,,,0.00,Acu-Link.com,2013-10-15 21:50:00,
2013-10-15 18:05:00,69.1,58.1,29.93,ENE,67,2.7,-999.0,68,-99.99,,,0.00,Acu-Link.com,2013-10-15 22:05:00,
2013-10-15 18:21:00,68.4,57.8,29.93,ESE,112,2.7,-999.0,69,-99.99,,,0.00,Acu-Link.com,2013-10-15 22:21:00,
2013-10-15 18:36:00,67.6,57.5,29.92,SE,135,0.0,-999.0,70,-99.99,,,0.00,Acu-Link.com,2013-10-15 22:36:00,
2013-10-15 18:51:00,66.7,57.0,29.92,South,180,3.2,-999.0,71,-99.99,,,0.00,Acu-Link.com,2013-10-15 22:51:00,
2013-10-15 19:06:00,66.4,57.1,29.91,ESE,112,2.2,-999.0,72,-99.99,,,0.00,Acu-Link.com,2013-10-15 23:06:00,
2013-10-15 19:21:00,65.8,56.5,29.91,East,90,2.2,-999.0,72,-99.99,,,0.00,Acu-Link.com,2013-10-15 23:21:00,
2013-10-15 19:37:00,65.1,56.2,29.92,ESE,112,2.7,-999.0,73,-99.99,,,0.00,Acu-Link.com,2013-10-15 23:37:00,
2013-10-15 19:52:00,64.9,56.0,29.91,East,90,3.7,-999.0,73,-99.99,,,0.00,Acu-Link.com,2013-10-15 23:52:00,
2013-10-15 20:07:00,64.4,55.9,29.91,ESE,112,3.7,-999.0,74,-99.99,,,0.00,Acu-Link.com,2013-10-16 00:07:00,
2013-10-15 20:23:00,64.4,55.9,29.90,ESE,112,2.7,-999.0,74,-99.99,,,0.00,Acu-Link.com,2013-10-16 00:23:00,
2013-10-15 20:38:00,64.2,55.7,29.90,East,90,3.2,-999.0,74,-99.99,,,0.00,Acu-Link.com,2013-10-16 00:38:00,
2013-10-15 20:53:00,64.0,55.5,29.89,SE,135,4.7,-999.0,74,-99.99,,,0.00,Acu-Link.com,2013-10-16 00:53:00,
2013-10-15 21:08:00,63.9,55.4,29.90,East,90,2.7,-999.0,74,-99.99,,,0.00,Acu-Link.com,2013-10-16 01:08:00,
2013-10-15 21:23:00,63.7,55.6,29.89,SE,135,2.7,-999.0,75,-99.99,,,0.00,Acu-Link.com,2013-10-16 01:23:00,
2013-10-15 21:39:00,63.1,55.0,29.89,ESE,112,2.2,-999.0,75,-99.99,,,0.00,Acu-Link.com,2013-10-16 01:39:00,
2013-10-15 21:54:00,62.8,55.1,29.90,South,180,1.1,-999.0,76,-99.99,,,0.00,Acu-Link.com,2013-10-16 01:54:00,
2013-10-15 22:09:00,62.2,54.5,29.89,SW,225,1.7,-999.0,76,-99.99,,,0.00,Acu-Link.com,2013-10-16 02:09:00,
2013-10-15 22:24:00,62.1,54.8,29.90,SW,225,1.7,-999.0,77,-99.99,,,0.00,Acu-Link.com,2013-10-16 02:24:00,
2013-10-15 22:39:00,61.9,54.6,29.90,SSW,202,3.2,-999.0,77,-99.99,,,0.00,Acu-Link.com,2013-10-16 02:39:00,
2013-10-15 22:55:00,61.9,54.6,29.89,East,90,0.0,-999.0,77,-99.99,,,0.00,Acu-Link.com,2013-10-16 02:55:00,
2013-10-15 23:10:00,61.5,54.6,29.88,ESE,112,2.2,-999.0,78,-99.99,,,0.00,Acu-Link.com,2013-10-16 03:10:00,
2013-10-15 23:25:00,61.2,54.3,29.88,ESE,112,0.0,-999.0,78,-99.99,,,0.00,Acu-Link.com,2013-10-16 03:25:00,
2013-10-15 23:40:00,61.0,54.1,29.87,ESE,112,0.0,-999.0,78,-99.99,,,0.00,Acu-Link.com,2013-10-16 03:40:00,
2013-10-15 23:56:00,60.8,53.9,29.87,SSW,202,2.2,-999.0,78,-99.99,,,0.00,Acu-Link.com,2013-10-16 03:56:00,